Location: Corralito
(10.2667°N, 66.9500°W)
Time: 09:32:56
(UTC+00:00)

GPS 2-15 Rocket1 - Pass Details

Date: 10 December 2023
Orbit: 617 x 666 km, 19.8° (Epoch: 02 March)

Event Time Altitude Azimuth Distance (km) Brightness Sun altitude
Rises 23:59:06 0° 237° (WSW) 2,948 7.8 -26.6°
Reaches altitude 10° 00:01:35 10° 231° (SW) 2,030 6.6 -27.2°
Enters shadow 00:05:10 38° 190° (S) 974 4.2 -28.0°
